Date String (YYYY-MM-DD hh:mm:ss) UTC,Instrument flags,Ambient pressure (hPa),Sample flow (lpm),Bypass flow (lpm),Sample temperature (°C),Ambient temperature (°C),ASC tube jacket temperature (°C),LED temperature (°C),Box temperature (°C),Sample RH (%),Span deviation,Mass concentration (μg/m³),Mass concentration (μg/m³),Mass concentration (μg/m³)
DateTimeUTC,F1_M11,P_M11,Q1_M11,Q2_M11,T1_M11,T2_M11,T3_M11,T4_M11,T5_M11,U1_M11,ZSPAN_M11,X0_M11,X2_M11,X1_M11
2022-12-31 06:00:00,,0813.0,5.01,0.00,22.0,22.0,00.0,30.7,23.9,11.4,0003.5,0017.88,0010.99,0010.15
2022-12-31 06:01:00,,0813.1,5.03,0.00,22.0,21.5,00.0,30.7,23.8,11.4,0004.0,0016.72,0010.26,0009.49
2022-12-31 06:02:00,,0812.8,4.98,0.00,22.0,21.2,00.0,30.7,23.7,11.6,0004.1,0015.88,0009.65,0008.92
2022-12-31 06:03:00,,0812.9,5.00,0.00,21.9,20.9,00.0,30.7,23.6,11.6,0003.7,0014.48,0009.13,0008.40
2022-12-31 06:04:00,,0813.0,4.98,0.00,21.9,20.7,00.0,30.8,23.6,11.5,0002.8,0013.22,0008.48,0007.81
2022-12-31 06:05:00,,0813.0,5.01,0.00,21.9,20.6,00.0,30.8,23.6,11.5,0000.0,0012.00,0007.74,0007.10
2022-12-31 06:06:00,,0813.0,5.03,0.00,21.9,20.3,00.0,30.8,23.4,11.4,0000.0,0010.88,0006.91,0006.39
2022-12-31 06:07:00,,0812.9,5.00,0.00,21.8,20.0,00.0,30.7,23.3,11.4,0000.0,0010.02,0006.25,0005.77
2022-12-31 06:08:00,,0812.9,4.98,0.00,21.7,19.7,00.0,30.7,23.2,11.4,0000.0,0009.13,0005.61,0005.19
2022-12-31 06:09:00,,0813.0,4.98,0.00,21.6,19.4,00.0,30.7,23.1,11.5,0000.0,0009.06,0004.96,0004.59
2022-12-31 06:10:00,,0812.9,5.00,0.00,21.5,19.3,00.0,30.7,23.0,11.6,0000.0,0008.31,0004.34,0004.03
2022-12-31 06:11:00,,0812.9,5.02,0.00,21.5,19.1,00.0,30.6,22.9,11.6,0000.0,0007.93,0004.07,0003.76
2022-12-31 06:12:00,,0812.9,5.04,0.00,21.4,19.0,00.0,30.6,22.8,11.6,0000.0,0007.91,0004.07,0003.75
2022-12-31 06:13:00,,0813.0,4.98,0.00,21.4,19.7,00.0,30.5,22.9,11.5,0000.0,0007.97,0004.13,0003.81
2022-12-31 06:14:00,,0812.9,4.97,0.00,21.5,21.0,00.0,30.4,23.3,11.5,0000.0,0007.93,0004.11,0003.81
2022-12-31 06:15:00,,0812.8,5.00,0.00,21.6,22.0,00.0,30.4,23.6,11.5,0000.0,0007.89,0004.08,0003.79
2022-12-31 06:16:00,,0812.8,5.03,0.00,21.7,21.8,00.0,30.5,23.6,11.4,0000.0,0007.85,0004.09,0003.80
2022-12-31 06:17:00,,0812.8,5.00,0.00,21.7,21.4,00.0,30.5,23.6,11.4,0000.0,0007.96,0004.12,0003.85
2022-12-31 06:18:00,,0813.0,4.97,0.00,21.7,21.1,00.0,30.6,23.5,11.4,0000.0,0008.49,0004.10,0003.82
2022-12-31 06:19:00,,0813.2,4.98,0.00,21.7,20.9,00.0,30.6,23.5,11.4,0000.0,0008.78,0004.00,0003.73
2022-12-31 06:20:00,,0813.1,5.03,0.00,21.8,20.8,00.0,30.6,23.5,11.3,0000.0,0008.14,0003.93,0003.66
2022-12-31 06:21:00,,0813.2,5.04,0.00,21.7,20.7,00.0,30.6,23.5,11.2,0000.0,0007.67,0003.87,0003.62
2022-12-31 06:22:00,,0813.2,4.99,0.00,21.7,20.6,00.0,30.6,23.4,11.3,0000.0,0007.52,0003.78,0003.57
2022-12-31 06:23:00,,0813.2,4.98,0.00,21.7,20.6,00.0,30.6,23.4,11.3,0000.0,0007.42,0003.73,0003.53
2022-12-31 06:24:00,,0813.2,5.00,0.00,21.7,20.5,00.0,30.6,23.4,11.3,0000.0,0007.33,0003.66,0003.47
2022-12-31 06:25:00,,0813.2,4.97,0.00,21.7,20.5,00.0,30.6,23.4,11.4,0000.0,0007.65,0003.62,0003.43
2022-12-31 06:26:00,,0813.2,4.99,0.00,21.7,20.5,00.0,30.6,23.4,11.4,0000.0,0007.74,0003.60,0003.42
2022-12-31 06:27:00,,0813.3,5.02,0.00,21.7,20.4,00.0,30.6,23.4,11.4,0000.0,0007.74,0003.60,0003.42
2022-12-31 06:28:00,,0813.3,5.04,0.00,21.7,20.3,00.0,30.6,23.4,11.3,0000.0,0007.59,0003.60,0003.41
2022-12-31 06:29:00,,0813.3,4.99,0.00,21.7,20.4,00.0,30.6,23.4,11.3,0000.0,0006.55,0003.54,0003.38
2022-12-31 06:30:00,,0813.5,4.98,0.00,21.7,20.4,00.0,30.6,23.4,11.3,0000.0,0005.63,0003.46,0003.31
2022-12-31 06:31:00,,0813.4,5.00,0.00,21.7,20.5,00.0,30.6,23.4,11.3,0000.0,0005.46,0003.38,0003.25
2022-12-31 06:32:00,,0813.4,5.01,0.00,21.7,20.5,00.0,30.6,23.5,11.4,0000.0,0005.33,0003.36,0003.21
2022-12-31 06:33:00,,0813.4,5.02,0.00,21.8,20.5,00.0,30.6,23.5,11.4,0000.0,0005.50,0003.39,0003.21
2022-12-31 06:34:00,,0813.4,4.98,0.00,21.8,20.5,00.0,30.6,23.5,11.3,0000.0,0005.56,0003.39,0003.18
2022-12-31 06:35:00,,0813.5,4.98,0.00,21.8,20.6,00.0,30.6,23.5,11.3,0000.0,0005.61,0003.36,0003.15
2022-12-31 06:36:00,,0813.4,5.03,0.00,21.8,20.6,00.0,30.6,23.4,11.4,0000.0,0005.13,0003.29,0003.09
2022-12-31 06:37:00,,0813.4,5.02,0.00,21.8,21.0,00.0,30.6,23.6,11.7,0000.0,0004.65,0003.17,0002.86
2022-12-31 06:38:00,,0813.3,5.02,0.00,21.9,22.0,00.0,30.6,23.9,11.8,0000.0,0004.43,0002.99,0002.60
2022-12-31 06:39:00,,0813.3,4.98,0.00,22.0,22.9,00.0,30.6,24.2,11.7,0000.0,0004.03,0002.69,0002.33
2022-12-31 06:40:00,,0813.3,4.99,0.00,22.1,22.7,00.0,30.7,24.2,11.4,0000.0,0003.79,0002.50,0002.16
2022-12-31 06:41:00,,0813.3,5.02,0.00,22.1,22.0,00.0,30.7,24.0,11.2,0000.0,0003.63,0002.39,0002.06
2022-12-31 06:42:00,,0813.3,5.02,0.00,22.1,21.6,00.0,30.8,23.9,11.4,0000.0,0003.41,0002.22,0001.92
2022-12-31 06:43:00,,0813.2,5.02,0.00,22.1,21.3,00.0,30.8,23.9,11.5,0000.0,0003.12,0002.02,0001.76
2022-12-31 06:44:00,,0813.2,4.98,0.00,22.1,21.0,00.0,30.8,23.8,11.5,0000.0,0002.68,0001.70,0001.51
2022-12-31 06:45:00,,0813.1,4.98,0.00,22.0,20.9,00.0,30.8,23.8,11.4,0000.0,0002.31,0001.43,0001.29
2022-12-31 06:46:00,,0813.1,5.03,0.00,22.0,20.8,00.0,30.8,23.8,11.4,0000.0,0002.10,0001.28,0001.14
2022-12-31 06:47:00,,0812.8,5.02,0.00,22.0,20.8,00.0,30.8,23.8,11.6,0000.0,0001.50,0001.10,0000.98
2022-12-31 06:48:00,,0813.0,4.98,0.00,22.0,20.8,00.0,30.9,23.8,11.9,0000.0,0001.38,0001.02,0000.92
2022-12-31 06:49:00,,0813.2,4.98,0.00,22.0,20.6,00.0,30.8,23.7,11.9,0000.0,0001.23,0000.98,0000.91
2022-12-31 06:50:00,,0812.9,5.02,0.00,22.0,20.5,00.0,30.8,23.6,12.0,0000.0,0001.23,0000.99,0000.93
2022-12-31 06:51:00,,0813.0,5.04,0.00,22.0,20.5,00.0,30.8,23.6,12.1,0000.0,0001.25,0000.98,0000.91
2022-12-31 06:52:00,,0812.7,4.97,0.00,21.9,20.4,00.0,30.8,23.5,11.7,0000.0,0001.41,0001.05,0000.97
2022-12-31 06:53:00,,0812.7,4.98,0.00,21.9,20.3,00.0,30.8,23.4,11.7,0000.0,0001.53,0001.15,0001.07
2022-12-31 06:54:00,,0812.7,4.97,0.00,21.9,20.2,00.0,30.8,23.4,11.7,0000.0,0001.73,0001.27,0001.17
2022-12-31 06:55:00,,0812.6,4.98,0.00,21.8,20.2,00.0,30.8,23.4,11.5,0000.0,0001.94,0001.44,0001.34
2022-12-31 06:56:00,,0812.6,4.99,0.00,21.8,20.1,00.0,30.8,23.4,11.5,0000.0,0002.31,0001.74,0001.61
2022-12-31 06:57:00,,0812.6,5.09,0.00,21.8,20.2,00.0,30.8,23.4,11.4,0000.0,0002.62,0002.03,0001.91
2022-12-31 06:58:00,,0812.6,4.98,0.00,21.8,20.3,00.0,30.8,23.5,11.4,0000.0,0002.97,0002.33,0002.19
2022-12-31 06:59:00,,0812.6,4.97,0.00,21.8,20.4,00.0,30.7,23.5,11.4,0000.0,0003.52,0002.71,0002.56
